Flag for Sweden Weather past 2 weeks in Stockholm, Sweden

39 °F

Rain. Mostly cloudy.

Feels Like: 33 °F
Forecast: 30 / 34 °F
Wind: 9 mph from East

Location: Stockholm Bromma Airport

Current Time: Nov 30, 2015 at 2:18:11 AM

Latest Report: Nov 30, 2015 at 1:50 AM

Visibility: 3 mi

Pressure: 28.77 "Hg

Humidity: 93%

Dew point: 37 °F

Location of StockholmLocation

Historic Weather in Stockholm — Graph


Stockholm temperature yesterday

Maximum temperature yesterday: 41 °F (at 9:50 AM)
Minimum temperature yesterday: 34 °F (at 12:50 AM)
Average temperature yesterday: 38 °F

Past Weeks' High & Low Weather Summary

High48 °F (Nov 27, 12:20 PM)100% (Nov 15, 4:20 AM)29.92 "Hg (Nov 15, 4:20 AM)
Low14 °F (Nov 23, 2:50 AM)64% (Nov 21, 12:20 PM)28.85 "Hg (Nov 30, 12:50 AM)
Average36 °F87%29.51 "Hg
* Reported Nov 15 12:50 AM — Nov 30 12:50 AM, Stockholm, Weather by CustomWeather, © 2015

Note: Actual official high and low records may vary slightly from our data, if they occured in-between our weather recording intervals... More about our weather records


Stockholm weather history for previous 24 hours

Time TempWeatherWind HumidityBarometerVisibility
12:50 AM
Mon, Nov 30
39 °FRain. Partly cloudy.15 mph87%28.85 "Hg2 mi
11:50 PM
Sun, Nov 29
39 °FLight rain. Partly cloudy.7 mph87%28.94 "HgN/A
11:20 PM39 °FLight rain. Mostly cloudy.7 mph87%28.97 "HgN/A
10:50 PM39 °FPassing clouds.8 mph81%29.00 "HgN/A
10:20 PM39 °FPassing clouds.7 mph81%29.03 "HgN/A
9:50 PM37 °FPassing clouds.8 mph87%29.06 "HgN/A
9:20 PM37 °FClear.9 mph81%29.06 "Hg10 mi
8:50 PM37 °FClear.9 mph81%29.06 "Hg10 mi
8:20 PM36 °FClear.8 mph87%29.09 "Hg10 mi
7:50 PM36 °FPassing clouds.9 mph87%29.09 "HgN/A
7:20 PM37 °FPassing clouds.9 mph81%29.09 "HgN/A
6:50 PM37 °FPassing clouds.10 mph81%29.09 "HgN/A
6:20 PM39 °FPassing clouds.12 mph81%29.12 "HgN/A
5:50 PM39 °FPassing clouds.12 mph81%29.12 "HgN/A
5:20 PM39 °FPassing clouds.10 mph81%29.12 "HgN/A
4:50 PM39 °FPartly cloudy.10 mph81%29.12 "HgN/A
4:20 PM39 °FPassing clouds.9 mph87%29.12 "HgN/A
3:50 PM39 °FPassing clouds.10 mph87%29.12 "HgN/A
3:20 PM41 °FPassing clouds.10 mph81%29.12 "HgN/A
2:50 PM41 °FPartly sunny.10 mph81%29.12 "HgN/A
2:20 PM41 °FPartly sunny.12 mph81%29.15 "HgN/A
1:50 PM41 °FBroken clouds.12 mph81%29.15 "HgN/A
1:20 PM41 °FPartly sunny.10 mph87%29.15 "HgN/A
12:50 PM39 °FBroken clouds.8 mph93%29.15 "HgN/A
12:20 PM39 °FLight rain. Mostly cloudy.12 mph93%29.18 "HgN/A
11:50 AM41 °FLight rain. Mostly cloudy.14 mph87%29.18 "HgN/A
11:20 AM41 °FLight rain. Partly sunny.18 mph87%29.21 "HgN/A
10:20 AM41 °FOvercast.12 mph81%29.24 "HgN/A
9:50 AM41 °FOvercast.12 mph81%29.27 "HgN/A
9:20 AM39 °FMostly cloudy.12 mph87%29.30 "HgN/A
8:50 AM39 °FMostly cloudy.10 mph81%29.30 "HgN/A
8:20 AM39 °FPartly sunny.13 mph81%29.33 "HgN/A
7:50 AM37 °FPartly cloudy.12 mph87%29.33 "HgN/A
7:20 AM37 °FChilly.9 mph87%29.33 "HgN/A
6:20 AM34 °FChilly.8 mph100%29.36 "HgN/A
5:50 AM34 °FChilly.8 mph93%29.39 "HgN/A
5:20 AM34 °FChilly.7 mph93%29.39 "HgN/A
4:50 AM36 °FChilly.7 mph87%29.42 "HgN/A
4:20 AM34 °FChilly.7 mph93%29.42 "HgN/A
3:50 AM34 °FChilly.6 mph93%29.42 "HgN/A
3:20 AM34 °FChilly.6 mph93%29.42 "HgN/A
2:50 AM34 °FChilly.7 mph93%29.45 "HgN/A
2:20 AM34 °FChilly.6 mph93%29.45 "HgN/A
Weather by CustomWeather, © 2015

See weather overviewHow to use our weather pages